Regional Weather Roundup
Issued by NWS

Home | Current Version | Previous Version | Graphics & Text | Print | Product List | Glossary On
Versions: 1 2 3 4 5 6 7 8 9 10 11 12 13 14 15 16 17 18 19 20 21 22 23 24 25 26 27 28 29 30 31 32 33 34 35 36 37 38 39 40 41 42 43 44 45 46 47 48 49 50
000
ASUS45 KSLC 270310
RWRUT

UTAH REGIONAL WEATHER ROUNDUP
NATIONAL WEATHER SERVICE SALT LAKE CITY UT
900 PM MDT THU MAR 26 2015

UTZ001>011-023>025-270400-

NORTHERN UTAH

CITY           SKY/WX    TMP DP  RH WIND       PRES   REMARKS
BRIGHAM CITY   PTCLDY    50  31  49 CALM      30.34R
HILL AFB       CLEAR     51  25  36 SE2       30.33R
LOGAN          CLEAR     50  33  52 SE3       30.33R
OGDEN          CLEAR     51  27  39 CALM      30.32R
PROVO AIRPORT  PTCLDY    48  30  49 CALM      30.34R
SALT LAKE CITY PTCLDY    54  28  36 N3        30.32S
VERNAL         CLEAR     49  23  36 W6        30.25R
WENDOVER       CLEAR     55  27  33 S5        30.32R
HEBER CITY     PTCLDY    46  27  46 E9        30.34R
WEST JORDAN    CLEAR     48  30  49 W5        30.34R

$$

UTZ012>022-026-027-270400-

SOUTHERN/CENTRAL UTAH

CITY           SKY/WX    TMP DP  RH WIND       PRES   REMARKS
BLANDING       CLEAR     48  18  30 NE8       30.35R
BRYCE CANYON   CLEAR     45  22  40 NE7       30.38R
CEDAR CITY     CLEAR     47  24  40 NE6       30.31R
DELTA          CLEAR     56  26  31 CALM      30.32R
HANKSVILLE     PTCLDY    50  18  27 CALM      30.25R
MILFORD        CLEAR     46  22  38 N6        30.32R
MOAB/CYNLANDS  CLEAR     50  15  24 CALM      30.22R
PRICE          CLEAR     54  19  25 N10       30.28R
ST GEORGE      PTCLDY    70  27  19 CALM      30.20R
KANAB          CLEAR     45  25  45 NE3       30.30R

$$

REGIONAL REPORTS     COLORADO/ARIZONA

CITY           SKY/WX    TMP DP  RH WIND       PRES   REMARKS
CRAIG, CO      CLOUDY    43  27  53 SW3       30.27R
GRAND JUNCTION PTCLDY    51  17  26 N9        30.25R
RIFLE          CLEAR     54  20  26 W15       30.25R
MONTROSE       MOCLDY    48  23  37 S9        30.31R
CORTEZ         CLEAR     48  16  27 S5        30.28R
PAGE, AZ       CLEAR     61  20  20 CALM      30.25R
GRAND CANYON   CLEAR     37  19  48 NE3       30.35R
KINGMAN        CLEAR     57  24  28 E10       30.18R
FLAGSTAFF      CLEAR     46  14  27 E3        30.36R

$$

REGIONAL REPORTS    NEVADA/IDAHO/WYOMING

CITY           SKY/WX    TMP DP  RH WIND       PRES   REMARKS
LAS VEGAS, NV  PTCLDY    75  22  13 CALM      30.11R
ELY            CLEAR     51  20  29 S6        30.32R
ELKO           CLEAR     52  32  46 CALM      30.28R
POCATELLO, ID  CLEAR     47  33  58 S9        30.32R
BURLEY         CLEAR     46  34  62 S3        30.29R
EVANSTON, WY   PTCLDY    44  27  51 NW6       30.38R
ROCK SPRINGS   PTCLDY    45  28  51 W17       30.31R
KEMMERER       PTCLDY    37  30  75 NW7       30.38R WCI  32

$$



USA.gov is the U.S. government's official web portal to all federal, state and local government web resources and services.